Starlink 30836

operational
NORAD ID: 58221 Int'l Des: 2023-170 Owner: SPXS Country: US Constellation: starlink
LEOCIRCULAR

About Starlink 30836

Description loading...

Live Position

Loading 3D Globe...

Upcoming Passes

Altitude History

Altitude vs Time

uPlot chart will show altitude changes over time

Two-Line Element Set

1 58221U 23170R 25350.52624688 .00000298 00000-0 37150-4 0 9996
2 58221 43.0038 287.4548 0000990 280.6547 79.4184 15.02535168117778
Epoch: Dec 16, 2025 • Age: 20 hours

Current Status

Altitude 559.6 km
Velocity 7.58 km/s
Sub-Earth Point -4.24°S, 107.76°W
Launch Date Nov 4, 2023
Age 2.1 years
Type internet

Technical Details

Classification Payload
Mass 730.00 kg
Dry Mass 700.00 kg
Total Mass 730.00 kg
Length 0.30 m
Diameter 4.10 m
Span 29.00 m
Shape Box + pan
Manufacturer SPXS
Bus Type Starlink V2M
Phase Status In Orbit
Owner/State SPXS/US

Large Constellations

Loading constellations...